Regional Weather Roundup
Issued by NWS

Home | Current Version | Previous Version | Graphics & Text | Print | Product List | Glossary Off
Versions: 1 2 3 4 5 6 7 8 9 10 11 12 13 14 15 16 17 18 19 20 21 22 23 24 25 26 27 28 29 30 31 32 33 34 35 36 37 38 39 40 41 42 43 44 45 46 47 48 49 50

000
ASUS43 KMPX 231410
RWRMN
WEATHER ROUNDUP FOR MINNESOTA
NATIONAL WEATHER SERVICE TWIN CITIES/CHANHASSEN MN
900 AM CDT SAT MAY 23 2015


NOTE: "FAIR" INDICATES FEW OR NO CLOUDS BELOW 12,000 FEET WITH NO
SIGNIFICANT WEATHER AND/OR OBSTRUCTIONS TO VISIBILITY. N/A MEANS
CURRENT SKY AND/OR WEATHER CONDITIONS ARE NOT AVAILABLE.

MNZ060>063-068>070-231500-
   Twin Cities Metro

CITY           SKY/WX    TMP DP  RH WIND       PRES   REMARKS
TWIN CITIES    PTSUNNY   62  45  53 W6        30.26R
ST PAUL        PTSUNNY   59  48  67 CALM      30.26R
CRYSTAL        PTSUNNY   63  44  50 W5        30.25R
BLAINE         PTSUNNY   64  45  48 NW7       30.25R
LAKEVILLE      CLOUDY    59  46  63 W3        30.27R
EDEN PRAIRIE   PTSUNNY   58  49  72 SW3       30.26R
SOUTH ST PAUL  PTSUNNY   60  48  64 CALM      30.25S
LAKE ELMO      FAIR      59  46  63 CALM      30.26R
$$
MNZ001>005-007-008-013>017-022>024-027-028-231500-
   Northwest Minnesota

CITY           SKY/WX    TMP DP  RH WIND       PRES   REMARKS
BEMIDJI        SUNNY     60  43  52 SW5       30.19F
HALLOCK        SUNNY     63  46  55 S8        30.14S
ROSEAU         SUNNY     66  43  42 SW7       30.15F
WARROAD        SUNNY     66  45  45 SW12      30.15S
THIEF RVR FALL SUNNY     61  45  55 S8        30.17S
CROOKSTON      SUNNY     59  46  63 S9        30.17S
FOSSTON        SUNNY     59  46  63 S10       30.19F
DETROIT LAKES  SUNNY     61  45  55 W6        30.23S
MOORHEAD       MOSUNNY   59  46  63 SW7       30.21S
PARK RAPIDS    SUNNY     62  44  51 W9        30.21S
MAHNOMEN       FAIR      61  44  53 SW10      30.20S
$$
MNZ006-009>011-018-025>026-231500-
   North Central Minnesota

CITY           SKY/WX    TMP DP  RH WIND       PRES   REMARKS
BAUDETTE       SUNNY     69  38  32 W8        30.16R
FLAG ISLAND    MOSUNNY   59  41  51 SE3       30.14R
INTL FALLS     SUNNY     64  42  44 W7        30.17S
WASKISH        SUNNY     63  46  55 CALM      30.18S
BIG FORK       SUNNY     68  43  40 SW6       30.20S
LONGVILLE      SUNNY     61  43  51 SW5       30.21S
GRAND RAPIDS   SUNNY     66  39  37 S7        30.21F
CRANE LAKE     SUNNY     64  37  36 W7        30.19S
ORR            SUNNY     66  36  32 W7        30.17S
COOK           SUNNY     64  39  39 W6        30.20S
WALKER         FAIR      61  42  49 SW6       30.20F
$$
MNZ012-019>021-037-231500-
   Northeast Minnesota

CITY           SKY/WX    TMP DP  RH WIND       PRES   REMARKS
DULUTH         SUNNY     68  38  33 W13       30.22S
ELY            SUNNY     66  36  32 W8        30.19S
HIBBING        SUNNY     64  39  39 SW5       30.21F
EVELETH        SUNNY     63  39  42 W9        30.22F
DULUTH HARBOR  SUNNY     64  43  45 SW12      30.22S
TWO HARBORS    SUNNY     72  45  37 W10       30.19F
SILVER BAY     SUNNY     70  36  28 W7        30.19R
GRAND MARAIS     N/A     44  37  76 W7        30.16S
G MARAIS ARPRT MOSUNNY   64  34  32 W12G18    30.19R
$$
MNZ029>031-032-039>041-046>048-054>057-064-231500-
   West Central Minnesota

CITY           SKY/WX    TMP DP  RH WIND       PRES   REMARKS
FERGUS FALLS   SUNNY     61  45  55 CALM      30.23F
WHEATON        MOSUNNY   55  45  67 SE7       30.24S
MORRIS         PTSUNNY   57  48  72 S10       30.24R
ALEXANDRIA     MOSUNNY   58  42  55 CALM      30.25S
ELBOW LAKE     FAIR      59  42  54 CALM      30.23S
WADENA         SUNNY     59  45  58 W8        30.22S
GLENWOOD       CLOUDY    57  45  62 N3        30.25S
APPLETON       CLOUDY    61  48  63 SE6       30.23S
BENSON         CLOUDY    57  46  67 CALM      30.25S
ORTONVILLE     PTSUNNY   57  46  67 SE7       30.22F
MADISON        LGT RAIN  57  48  72 E8        30.23S
WILLMAR        LGT RAIN  59  48  67 CALM      30.28R
$$
MNZ033>034-036-042>043-049>051-058-059-231500-
   Central Minnesota

CITY           SKY/WX    TMP DP  RH WIND       PRES   REMARKS
ST CLOUD       CLOUDY    62  47  57 W6        30.25R
SAUK CENTRE    FAIR      58  46  62 CALM      30.25S
PAYNESVILLE    CLOUDY    56  46  70 CALM      30.26S
AITKIN         SUNNY     64  45  48 CALM      30.21S
PINE RIVER     SUNNY     59  46  63 W3        30.25R
BRAINERD       SUNNY     60  44  55 W6        30.24R
STAPLES        SUNNY     61  43  51 W7        30.23S
LONG PRAIRIE   FAIR      57  45  62 W3        30.25F
LITTLE FALLS   MOSUNNY   61  43  51 W7        30.24R
LITCHFIELD     CLOUDY    61  48  63 CALM      30.27R
BUFFALO        PTSUNNY   57  48  70 CALM      30.27R
MAPLE LAKE     PTSUNNY   60  49  67 CALM      30.27R
$$
MNZ037-044-045-052-053-231500-
   East Central Minnesota

CITY           SKY/WX    TMP DP  RH WIND       PRES   REMARKS
PRINCETON      MOSUNNY   64  46  52 W5        30.24S
MORA           SUNNY     59  43  55 S3        30.25S
CAMBRIDGE      MOSUNNY   63  46  55 SW3       30.22S
RUSH CITY      SUNNY     58  43  57 CALM      30.25R
MOOSE LAKE     SUNNY     63  41  45 SW3       30.21F
HINCKLEY       FAIR      61  46  59 CALM      30.24S
CLOQUET        SUNNY     68  32  26 SW9       30.22F
MCGREGOR       SUNNY     63  43  48 SW5       30.23S
$$
MNZ071>073-080-081-089-090-097-098-231500-
   Southwest Minnesota

CITY           SKY/WX    TMP DP  RH WIND       PRES   REMARKS
MONTEVIDEO     CLOUDY    57  50  77 E3        30.25S
GRANITE FALLS  LGT RAIN  56  49  77 E3        30.26S
CANBY          CLOUDY    56  50  79 SE7       30.24S
MARSHALL       CLOUDY    55  48  76 SE7       30.24R
REDWOOD FALLS  LGT RAIN  56  50  80 NE3       30.25R
OLIVIA         LGT RAIN  54  46  76 CALM      30.24S
PIPESTONE      CLOUDY    55  48  76 E7        30.21F
WINDOM         CLOUDY    57  48  72 CALM      30.25R
WORTHINGTON    CLOUDY    57  46  67 SE9       30.23F
JACKSON        CLOUDY    55  50  82 SE8       30.25S
TRACY          LGT RAIN  56  52  85 S3        30.26R
SLAYTON        LGT RAIN  54  51  91 CALM      30.24F
$$
MNZ065>067-074>077-082>085-091>093-231500-
   South Central Minnesota

CITY           SKY/WX    TMP DP  RH WIND       PRES   REMARKS
MANKATO        CLOUDY    59  46  63 NE7       30.25F
NEW ULM        CLOUDY    57  46  67 CALM      30.25S
ST JAMES       CLOUDY    61  52  72 E5        30.26R
FAIRMONT       CLOUDY    57  46  67 SE5       30.26R
GLENCOE        CLOUDY    60  48  64 CALM      30.26S
FARIBAULT      LGT RAIN  59  46  63 NW5       30.28R
OWATONNA       CLOUDY    59  46  63 N6        30.27F
WASECA         CLOUDY    59  46  63 N8        30.27S
ALBERT LEA     PTSUNNY   61  45  55 N5        30.27S
$$
MNZ078>079-086>088-094>096-231500-
   Southeast Minnesota

CITY           SKY/WX    TMP DP  RH WIND       PRES   REMARKS
ROCHESTER      PTSUNNY   62  44  51 CALM      30.28R
RED WING       PTSUNNY   57  48  72 SE3       30.25S
STANTON        CLOUDY    62  46  53 NW8       30.26R
DODGE CENTER   CLOUDY    63  45  51 NW9       30.27R
WINONA         SUNNY     59  46  63 E3        30.27S
AUSTIN         PTSUNNY   61  46  59 NE3       30.27R
PRESTON        PTSUNNY   61  46  57 CALM      30.28S
$$
ABBREVIATIONS USED IN REMARKS
   TC - TEMPERATURES IN CELSIUS
  WCI - WIND CHILL INDEX
   HX - HEAT INDEX
  VSB - VISIBILITY
$$



USA.gov is the U.S. government's official web portal to all federal, state and local government web resources and services.